ICEYE-X64

operational
NORAD ID: 67373 Int'l Des: 2026-004 Owner: PUOL Country: FI
LEOCIRCULARRETROGRADESSO

关于 ICEYE-X64

正在加载描述...

实时位置

正在加载3D地球...

即将过境

高度历史

Altitude vs Time

uPlot chart will show altitude changes over time

两行轨道根数

1 67373U 26004L 26071.14240362 .00004347 00000-0 48296-3 0 9996
2 67373 97.8016 71.2939 0007595 94.6165 265.5919 14.87686273 8868
Epoch: Mar 12, 2026 • Age: 41 hours

当前状态

高度 607.8 km
速度 7.56 km/s
星下点 1.74°N, 178.4°W
发射日期 Jan 11, 2026
运行时间 0.1 years
类型 other

技术详情

分类 Payload
质量 120.00 kg
干质量 120.00 kg
总质量 120.00 kg
长度 0.80 m
直径 0.60 m
跨度 1.50 m
形状 Box + pan
制造商 ICEYE
平台类型 ICEYE
阶段状态 In Orbit
所有者/国家 PUOL/FI

大型星座

Loading constellations...